RH
21 14 8 7 4 5 4 4 8 22 48 40 37 34 41 44 41 30 26 24 22 20 19 14 15 13 12 11 21 74 84 94 100 54 30 31 34 44 51 52 58 64 73 68 72
4 19 14 9 7 4 5 4 5 16 35 55 46 40 46 49 45 36 42 44 38 35 32 17 14 19 10 25 28 80 54 42 74 55 32 29 30 42 50 52 53 64 74 68 71
4 4 20 16 11 7 5 5 4 7 21 46 49 41 44 44 44 49 50 47 46 43 22 15 42 96 89 65 74 50 17 19 32 31 34 30 26 33 49 53 58 59 69 73 73
3 4 4 21 19 13 7 6 5 5 14 32 41 43 42 37 79 50 48 46 46 45 26 14 90 72 82 78 96 28 20 12 11 13 14 22 32 27 36 52 53 56 63 58 69
3 3 4 4 21 23 16 7 6 5 6 18 30 36 48 42 37 43 47 47 45 40 25 27 35 81 96 96 88 84 12 13 13 11 14 17 14 28 26 40 49 57 63 55 53
6 3 3 4 4 18 27 18 8 6 6 10 19 21 34 39 23 31 42 40 44 29 29 27 48 56 99 29 48 14 16 9 9 11 12 12 20 16 23 28 37 48 50 58 64
12 6 3 3 4 4 12 27 21 9 6 7 14 16 18 21 20 25 41 38 34 18 26 24 25 31 66 52 9 9 66 6 8 15 22 21 13 24 19 25 26 29 32 41 49
16 13 5 3 3 4 4 10 24 22 10 6 8 13 9 18 13 13 34 44 39 11 21 22 23 24 23 15 33 98 97 85 12 11 25 88 31 15 24 16 28 33 27 26 29
16 18 14 5 3 3 4 5 11 21 22 10 6 6 12 12 8 10 35 44 24 15 16 18 22 15 42 97 95 72 64 79 47 19 19 94 22 30 15 21 20 17 20 27 29
4 15 20 16 6 3 4 5 6 11 22 19 9 6 7 19 12 8 18 38 30 35 22 17 18 78 77 82 80 65 82 69 93 30 47 91 28 17 25 29 22 14 17 23 27
4 4 16 21 17 7 3 3 5 6 10 18 16 8 11 5 12 7 10 19 31 46 40 81 61 88 78 74 67 61 61 64 70 33 90 86 89 28 16 20 20 24 26 27 24
6 4 5 15 22 19 9 4 3 4 6 8 14 18 6 7 8 8 6 9 28 42 62 86 72 86 72 64 58 60 57 58 29 30 70 38 87 70 27 49 60 46 18 19 22
8 8 4 5 15 23 20 13 4 3 3 5 6 10 10 5 5 6 5 5 15 48 42 86 85 82 19 68 56 54 55 59 79 16 28 68 89 36 15 29 25 43 54 21 18
8 8 10 5 4 14 23 22 18 7 4 3 4 6 7 8 5 4 4 5 6 14 40 83 85 86 68 68 61 56 61 50 52 73 88 61 84 79 34 11 12 12 38 32 44
5 8 8 10 7 4 10 22 23 22 13 10 4 3 4 6 10 6 4 5 4 6 16 53 84 24 31 71 65 64 67 52 55 62 45 48 53 69 49 56 13 7 6 11 7
4 6 7 7 8 6 4 8 18 22 20 16 11 5 3 4 5 9 6 4 6 5 6 29 45 66 60 72 34 53 54 47 49 51 44 45 50 53 47 62 80 16 6 10 10
3 3 6 8 8 6 5 4 8 13 22 21 17 13 7 3 3 6 5 5 4 5 4 8 7 8 10 41 22 9 51 42 39 37 38 42 28 49 47 14 58 74 16 5 5
3 3 3 7 8 9 7 6 4 5 18 16 18 17 14 10 4 3 5 5 4 5 16 20 38 5 7 6 58 37 52 41 43 38 36 42 35 41 46 12 5 6 5 5 5
8 8 6 6 6 7 9 9 8 7 11 7 11 15 18 16 10 5 3 4 5 4 6 51 51 51 10 9 13 65 56 45 37 36 38 35 41 47 27 27 5 5 5 5 5
7 6 6 7 7 7 6 5 8 10 8 7 6 10 19 30 20 10 6 4 5 27 14 24 55 48 55 38 45 64 58 43 39 39 38 31 38 43 50 50 11 36 16 10 6
11 10 10 8 8 7 7 6 6 6 6 8 9 7 15 19 42 42 10 16 6 14 44 37 41 45 51 61 46 24 46 52 39 32 34 37 34 38 40 41 27 57 41 20 15
14 13 13 12 11 10 10 10 8 7 6 5 7 9 7 8 14 18 19 26 18 14 33 38 32 40 48 58 21 53 52 46 43 42 37 35 41 52 64 63 56 68 65 27 24
16 15 13 12 9 10 11 11 10 8 7 7 5 8 9 8 8 13 16 14 36 37 9 42 13 39 42 51 56 48 52 51 43 38 38 37 36 45 56 66 69 69 59 20 19
15 14 13 13 11 10 9 9 10 10 7 7 6 5 7 10 9 8 13 13 17 14 13 16 39 35 34 40 48 52 30 47 43 38 36 34 36 51 51 48 69 71 50 21 16
17 16 15 14 12 12 10 9 9 10 9 8 7 6 5 8 11 10 8 12 14 10 7 8 9 38 36 38 40 44 48 30 26 35 30 29 35 40 52 54 41 68 35 22 22
15 16 15 14 11 9 10 11 11 10 8 8 8 6 4 6 9 11 9 11 12 16 15 13 9 39 46 42 39 40 40 39 37 34 32 28 28 33 40 43 59 30 24 27 30
18 14 14 14 12 10 8 7 5 6 6 6 5 6 5 5 11 11 13 11 48 62 78 39 16 34 41 43 41 41 39 40 37 36 36 33 31 36 40 46 64 62 37 29 22
Wind_Speed
5 6 8 9 9 10 12 13 14 14 13 13 12 16 19 20 19 21 22 24 23 22 23 22 24 26 26 25 20 37 22 10 6 7 9 10 10 10 10 8 8 9 10 13 17
4 5 5 7 8 8 10 11 13 15 13 12 10 13 17 18 19 20 24 24 23 22 20 16 18 20 26 25 19 19 7 10 12 12 10 10 11 11 11 10 7 12 12 15 16
2 5 6 5 6 7 7 8 11 12 14 14 10 11 12 17 19 22 20 21 23 23 16 16 21 8 24 10 20 11 12 12 10 11 12 10 10 10 11 12 11 11 13 15 15
3 4 7 8 6 6 8 8 7 11 14 14 14 10 9 17 19 20 20 19 19 18 17 16 20 26 10 11 18 14 14 14 14 12 11 10 9 8 9 9 13 10 15 17 16
6 5 5 9 9 7 7 8 8 9 11 14 15 12 10 10 14 16 16 15 15 14 14 18 21 23 8 1 16 12 18 13 11 11 14 14 10 7 8 9 11 11 14 16 13
9 7 6 7 10 11 9 9 8 8 10 12 13 14 14 11 8 13 12 12 11 9 14 18 20 17 12 17 10 16 18 18 15 13 12 14 13 11 6 8 9 11 9 15 15
15 11 9 8 9 12 12 10 10 9 11 13 14 13 13 10 10 9 8 9 10 9 12 18 20 16 16 12 14 16 17 21 18 13 15 16 13 14 9 6 6 9 8 8 12
20 16 12 10 9 11 13 13 12 11 11 13 15 16 12 15 12 11 10 9 8 10 13 16 19 20 20 17 19 13 18 13 16 14 12 19 11 10 12 8 6 5 6 7 7
27 22 17 13 11 10 12 14 14 14 14 14 17 17 18 14 12 12 14 11 9 10 11 13 15 18 15 6 7 21 10 5 17 16 16 15 11 14 10 12 8 5 4 4 5
29 28 23 18 13 12 12 13 16 15 16 16 17 20 15 17 17 14 16 15 12 8 10 12 12 10 7 11 5 1 3 7 5 11 12 13 13 12 14 14 11 9 8 7 4
26 29 29 23 19 14 13 12 15 19 18 18 21 19 23 22 16 16 16 18 15 11 11 6 8 2 7 8 6 2 2 4 3 8 14 6 7 9 10 12 11 11 10 9 7
30 26 29 30 24 20 16 14 14 14 16 18 19 21 20 20 22 20 17 17 18 17 15 10 8 5 10 4 0 2 4 2 2 8 14 8 6 10 8 8 10 8 6 9 9
32 28 24 29 30 25 20 16 15 15 14 17 18 21 22 25 22 24 19 19 22 23 18 15 13 19 15 5 0 2 3 10 5 4 12 3 2 15 10 9 10 8 7 7 7
31 30 26 23 27 30 27 22 18 16 15 17 18 19 21 22 24 21 20 22 24 26 23 19 17 18 13 9 4 2 16 10 6 3 14 6 5 9 10 9 9 8 8 5 5
27 29 28 26 23 24 30 28 24 20 15 25 17 13 20 20 19 23 23 27 25 26 27 18 20 18 18 10 14 9 11 8 8 1 3 8 4 5 8 5 8 8 10 9 9
23 26 27 26 26 23 24 31 30 28 24 26 18 16 19 16 23 24 27 28 28 29 27 25 20 23 20 13 21 13 10 10 7 2 2 6 2 6 6 8 4 5 10 8 9
20 23 25 26 25 24 24 26 31 34 32 30 26 21 17 16 19 27 26 27 30 29 28 25 27 23 20 20 18 18 9 4 5 4 2 12 4 6 12 5 6 8 2 7 8
11 15 20 23 25 25 23 24 27 31 33 36 31 27 24 22 21 23 27 29 29 31 26 26 27 21 21 22 17 12 13 10 7 7 12 17 9 10 8 8 6 4 2 6 7
6 9 14 18 22 26 28 29 25 26 32 38 37 33 30 27 26 25 25 26 27 29 30 23 25 21 25 22 24 18 19 17 17 17 17 9 9 18 17 8 10 5 1 3 5
10 9 10 12 16 21 25 28 32 35 37 30 28 35 30 20 32 31 27 23 27 28 29 28 26 21 23 28 27 24 15 19 18 17 16 11 16 11 23 15 11 9 5 3 3
13 13 14 17 17 19 20 24 29 36 39 36 35 34 38 39 26 26 31 27 27 30 29 30 30 24 29 33 30 26 28 21 19 17 14 12 13 16 23 24 12 12 9 8 8
18 18 18 20 23 26 28 28 32 32 35 39 39 40 40 44 45 42 37 29 27 31 33 32 29 31 28 33 31 29 25 24 21 22 19 19 13 16 14 17 13 13 13 11 10
24 24 24 25 26 28 32 34 36 35 39 41 39 45 46 44 46 47 44 38 26 26 35 31 35 31 31 30 32 30 30 27 25 23 24 20 20 16 16 17 17 16 19 15 15
24 26 27 27 26 26 30 33 35 39 39 43 46 45 50 51 47 48 47 46 45 43 38 38 35 36 36 32 27 33 36 32 28 28 26 26 20 24 25 22 20 20 25 19 17
26 25 24 27 29 31 33 35 35 38 39 40 45 48 47 54 54 52 50 50 51 45 40 41 42 35 33 32 28 35 30 29 35 31 29 22 27 25 15 23 24 22 29 25 21
28 25 28 31 34 34 34 37 35 36 38 40 44 46 48 52 56 56 54 53 50 45 45 43 43 32 35 34 34 31 31 31 31 32 29 30 26 23 25 24 30 27 28 24 21
33 31 30 35 35 38 38 37 35 37 39 40 40 45 49 51 58 62 61 58 41 36 34 42 43 37 36 29 31 37 35 33 26 32 29 26 27 26 22 22 25 28 28 27 26
Wind_Direction
132 113 115 104 98 102 95 90 100 103 104 106 101 102 102 100 97 98 100 95 91 87 85 84 81 78 76 70 65 54 59 62 50 79 96 107 98 89 89 93 95 89 97 96 114
169 156 137 133 119 110 114 103 102 111 114 121 118 111 111 109 106 107 105 100 94 89 87 85 79 79 65 50 64 49 88 72 73 81 84 89 89 90 92 88 89 83 99 103 115
211 190 175 160 149 131 128 131 115 117 127 130 142 131 118 115 120 117 114 109 101 95 89 63 78 94 72 65 63 80 72 68 73 75 79 81 85 90 92 96 88 91 96 96 114
285 223 204 190 178 162 144 150 141 127 133 137 141 147 137 130 125 130 123 115 110 102 84 81 44 69 74 72 59 51 77 73 73 79 84 82 86 91 99 100 98 91 102 102 104
271 271 223 208 203 192 169 158 169 153 141 150 154 169 174 158 144 143 134 128 118 107 91 86 94 109 96 130 81 61 73 75 74 71 71 75 79 88 98 108 103 103 96 110 95
250 257 261 222 215 212 203 174 177 181 165 159 165 166 177 189 183 165 148 142 135 110 109 105 109 103 85 101 97 78 64 66 71 75 73 73 67 75 99 115 124 123 126 114 110
248 243 244 248 224 221 215 207 186 191 184 181 177 179 184 185 187 194 171 159 152 130 122 119 114 103 100 83 76 45 57 49 60 70 76 66 63 58 70 120 131 128 136 130 128
244 246 240 238 238 224 223 215 207 197 205 195 192 196 199 199 204 203 192 182 176 150 140 131 119 106 91 83 43 62 18 40 44 59 69 70 46 62 62 95 109 112 129 135 136
241 243 245 242 237 236 223 221 217 211 202 209 206 204 210 210 214 210 202 197 186 164 151 144 126 111 92 22 71 16 52 11 8 43 62 71 45 64 61 71 78 83 105 127 137
237 238 241 244 242 237 236 223 220 219 214 208 212 214 216 220 219 214 199 207 196 181 157 156 136 62 356 336 76 215 42 9 6 5 63 64 29 54 72 65 65 67 67 70 73
237 235 237 240 242 241 237 237 228 226 222 218 211 210 217 218 216 221 210 199 201 198 189 200 157 295 262 250 212 55 95 120 113 66 63 72 331 56 72 74 65 74 77 79 70
232 234 233 236 239 240 239 237 238 237 230 228 216 220 217 218 220 223 216 211 201 203 201 246 227 284 244 195 334 160 81 301 1 87 112 56 79 15 68 61 67 56 75 80 75
231 230 231 233 235 240 243 242 240 239 243 242 233 226 223 221 220 222 210 203 204 210 207 212 203 269 214 212 323 292 144 248 242 90 75 88 75 1 20 17 20 38 85 95 85
233 232 229 229 233 236 241 244 246 245 246 249 242 232 234 233 230 230 216 214 208 208 214 232 235 245 223 217 204 125 256 208 207 284 3 322 16 281 331 14 5 44 74 80 32
235 233 234 232 235 236 236 239 245 248 250 251 246 251 243 237 232 229 225 222 215 215 215 216 235 224 211 205 224 238 241 215 209 107 299 312 107 235 296 327 13 41 57 52 57
235 233 233 235 234 237 237 235 238 242 246 249 256 252 255 242 234 231 228 230 223 222 218 222 211 219 215 230 213 215 207 210 214 354 283 249 133 302 265 216 241 47 88 76 47
240 245 239 234 232 233 233 235 235 238 245 252 245 250 256 254 242 237 239 232 233 230 227 223 224 215 217 207 206 187 192 218 268 262 323 227 227 249 261 216 193 239 85 77 58
257 247 248 243 240 241 244 242 240 241 237 247 247 248 249 253 252 246 240 235 232 232 231 234 233 223 219 217 200 228 204 198 229 215 251 259 273 235 232 243 200 182 147 86 59
303 274 257 249 248 248 249 249 250 250 245 245 244 240 241 245 246 249 249 242 241 237 232 230 245 231 230 224 212 204 234 218 229 232 229 261 251 246 251 261 242 216 97 25 41
286 280 269 265 262 256 255 254 253 252 252 251 247 241 237 242 247 244 245 245 239 238 238 230 236 236 230 229 225 223 209 238 231 219 226 246 251 259 260 273 266 222 233 274 299
292 281 273 269 263 262 265 261 253 252 256 251 246 240 236 225 223 241 238 237 238 231 231 236 230 231 224 226 222 226 207 220 214 232 232 235 269 259 259 266 245 220 225 262 285
305 298 292 289 281 269 264 262 260 260 264 256 243 244 244 237 232 233 233 236 237 232 228 233 236 231 226 236 234 223 235 230 226 220 218 220 239 221 239 245 224 219 225 254 276
295 294 294 294 287 279 270 263 263 263 261 260 254 238 237 239 237 236 232 224 229 232 226 226 232 230 230 223 237 229 224 228 237 229 234 227 226 261 247 225 217 217 242 265 274
304 300 297 289 288 286 280 272 266 261 259 257 252 247 238 234 232 236 233 233 227 224 224 217 227 230 226 232 230 233 231 225 223 227 229 234 235 238 255 256 226 227 252 257 269
310 298 299 300 296 290 285 277 269 266 262 256 251 248 240 236 235 229 228 232 235 232 232 236 227 227 230 218 226 238 248 244 234 232 227 227 237 222 249 282 245 232 256 263 265
314 306 304 302 300 296 290 283 278 270 266 259 251 249 245 237 235 233 229 224 230 236 236 231 230 226 235 230 225 226 235 238 241 232 229 223 225 243 247 238 267 248 257 267 273
308 308 305 307 306 304 300 292 284 276 269 265 259 250 246 239 230 228 226 223 209 224 222 230 229 228 233 232 229 233 224 229 228 229 228 227 228 229 229 230 245 265 245 257 263